User: anonymous   Login
Location: Newark
(47.8285°N, 0.6972°W)
Time: 12:29:36
(UTC+00:00)
Language:

XW-2D - Orbit

View from above orbital plane
View from above orbital plane
View from above satellite
View from above satellite

Ground track
Ground track

The orbit data is extracted from the following two-line orbital elements,

1 40907U 15049J   19350.04053907  .00000519  00000-0  30414-4 0  9996
2 40907  97.4701 348.8834 0012646 294.2262 141.5963 15.16065846234330
Epoch (UTC): 16 December 2019 00:58:22
Eccentricity: 0.0012646
inclination: 97.4701°
perigee height: 509 km
apogee height: 526 km
right ascension of ascending node: 348.8834°
argument of perigee: 294.2262°
revolutions per day: 15.16065846
mean anomaly at epoch: 141.5963°
orbit number at epoch: 23433

The dashed part of the orbit path shows where the satellite is in the earth's shadow,  

DLR